EW0139 Weather Reports


time (UTC)temp
F
wind
direction
speed
knots
gust
knots
rain 1hr
in
rain 24hr
in
rain mn
in
humidity
%
barometer
mb
20260502194821 66 317 12.2 14.8 0.00 0.00 0.00 33 1014.7
20260502193800 66 331 9.6 17.4 0.00 0.00 0.00 32 1015.1
20260502192759 68 314 15.6 18.2 0.00 0.00 0.00 32 1015.1
20260502191744 67 323 13.0 20.9 0.00 0.00 0.00 34 1015.1
20260502190745 66 338 5.2 20.0 0.00 0.00 0.00 34 1015.2
20260502185746 65 306 12.2 15.6 0.00 0.00 0.00 35 1015.2
20260502184806 66 316 12.2 18.2 0.00 0.00 0.00 34 1015.3
20260502183749 66 327 11.3 17.4 0.00 0.00 0.00 36 1015.3
20260502182753 66 344 6.1 17.4 0.00 0.00 0.00 35 1015.2
20260502181754 66 325 10.4 19.1 0.00 0.00 0.00 34 1015.3
20260502180755 66 333 10.4 17.4 0.00 0.00 0.00 35 1015.3
20260502163749 65 311 13.9 19.1 0.00 0.00 0.00 40 1014.9
20260502162749 64 316 14.8 20.9 0.00 0.00 0.00 39 1014.8
20260502161753 64 310 15.6 20.9 0.00 0.00 0.00 40 1014.7
20260502160755 63 309 18.2 18.2 0.00 0.00 0.00 40 1015.0
20260502151759 61 328 7.8 13.9 0.00 0.00 0.00 42 1014.6
20260502150759 62 315 13.0 15.6 0.00 0.00 0.00 40 1014.6
20260502130745 48 254 5.2 7.8 0.00 0.00 0.00 62 1014.2
20260502123751 42 19 0.9 2.6 0.00 0.00 0.00 71 1014.0
20260502122752 41 19 2.6 3.5 0.00 0.00 0.00 70 1014.0
20260502121754 42 6 2.6 2.6 0.00 0.00 0.00 68 1013.8
20260502120753 42 342 0.0 2.6 0.00 0.00 0.00 69 1013.8
20260502115814 41 340 0.9 3.5 0.00 0.00 0.00 71 1013.7
20260502114820 40 342 0.9 2.6 0.00 0.00 0.00 72 1013.6
20260502113741 40 342 1.7 2.6 0.00 0.00 0.00 73 1013.5
20260502112741 41 338 0.0 0.0 0.00 0.00 0.00 70 1013.4
20260502111741 41 338 0.0 0.0 0.00 0.00 0.00 70 1013.3
20260502110749 42 338 0.9 2.6 0.00 0.00 0.00 69 1013.4
20260502105749 42 338 0.0 2.6 0.00 0.00 0.00 68 1013.5
20260502104749 42 338 2.6 3.5 0.00 0.00 0.00 69 1013.3
20260502103750 42 338 1.7 3.5 0.00 0.00 0.00 70 1013.2
20260502102753 42 338 2.6 4.3 0.00 0.00 0.00 71 1013.2
20260502101738 41 338 1.7 4.3 0.00 0.00 0.00 72 1013.1
20260502100742 41 338 3.5 3.5 0.00 0.00 0.00 73 1013.0
20260502090759 41 338 1.7 6.1 0.00 0.00 0.00 71 1013.0
20260502070744 44 328 0.0 5.2 0.00 0.00 0.00 60 1013.4
20260502065749 46 329 2.6 8.7 0.00 0.00 0.00 56 1013.3
20260502064754 47 350 2.6 3.5 0.00 0.00 0.00 54 1013.2
20260502063752 47 34 0.9 4.3 0.00 0.00 0.00 53 1012.9
20260502062813 48 34 1.7 4.3 0.00 0.00 0.00 51 1012.8
20260502060752 51 336 2.6 3.5 0.00 0.00 0.00 46 1012.9
20260502055755 53 123 0.0 2.6 0.00 0.00 0.00 43 1012.8
20260502054819 54 123 0.0 4.3 0.00 0.00 0.00 42 1012.9
20260502053801 55 123 5.2 5.2 0.00 0.00 0.00 41 1012.8
20260502052822 55 124 4.3 5.2 0.00 0.00 0.00 40 1012.9
20260502051746 55 134 2.6 4.3 0.00 0.00 0.00 40 1013.0
20260502050745 55 142 3.5 6.1 0.00 0.00 0.00 41 1013.1
20260502045747 55 144 5.2 8.7 0.00 0.00 0.00 42 1013.1
20260502044745 55 144 7.8 8.7 0.00 0.00 0.00 41 1013.1
20260502043807 54 139 3.5 6.1 0.00 0.00 0.00 41 1013.2
20260502042750 54 146 4.3 6.1 0.00 0.00 0.00 41 1013.3
20260502041751 55 138 4.3 6.1 0.00 0.00 0.00 40 1013.3
20260502040815 55 136 4.3 6.1 0.00 0.00 0.00 38 1013.2
20260502035757 56 136 2.6 7.8 0.00 0.00 0.00 38 1013.4
20260502034800 55 146 4.3 6.1 0.00 0.00 0.00 39 1013.5
20260502033744 55 173 2.6 5.2 0.00 0.00 0.00 39 1013.5
20260502032745 56 134 3.5 7.8 0.00 0.00 0.00 37 1013.5
20260502031745 55 122 4.3 6.1 0.00 0.00 0.00 38 1013.6
20260502030746 55 140 1.7 2.6 0.00 0.00 0.00 38 1013.5
20260502025749 56 140 0.0 2.6 0.00 0.00 0.00 38 1013.6
20260502024752 57 140 0.9 2.6 0.00 0.00 0.00 37 1013.6
20260502023752 59 140 2.6 6.1 0.00 0.00 0.00 35 1013.3
20260502022754 61 132 7.8 9.6 0.00 0.00 0.00 31 1013.5
20260502021755 62 107 6.1 9.6 0.00 0.00 0.00 31 1013.5
20260502020742 62 109 5.2 8.7 0.00 0.00 0.00 31 1013.5
20260502015747 63 107 6.1 10.4 0.00 0.00 0.00 30 1013.6
20260502014749 64 111 7.0 10.4 0.00 0.00 0.00 30 1013.8
20260502013750 65 114 8.7 9.6 0.00 0.00 0.00 29 1013.8
20260502012754 66 115 5.2 10.4 0.00 0.00 0.00 28 1013.9
20260502011754 66 124 8.7 12.2 0.00 0.00 0.00 28 1014.0
20260502010755 67 123 8.7 9.6 0.00 0.00 0.00 28 1014.0
20260502005754 68 127 4.3 9.6 0.00 0.00 0.00 28 1014.2
20260502004743 69 112 4.3 7.8 0.00 0.00 0.00 27 1014.3
20260502003742 69 106 6.1 10.4 0.00 0.00 0.00 28 1014.4
20260502002741 69 141 2.6 10.4 0.00 0.00 0.00 28 1014.5
20260502001746 69 125 2.6 7.0 0.00 0.00 0.00 25 1014.5
20260502000747 70 133 3.5 8.7 0.00 0.00 0.00 26 1014.7
20260501235753 70 141 4.3 8.7 0.00 0.00 0.00 28 1014.7
20260501234755 70 85 4.3 8.7 0.00 0.00 0.00 27 1014.7
20260501233815 70 144 5.2 8.7 0.00 0.00 0.00 27 1014.7
20260501232759 70 123 3.5 7.8 0.00 0.00 0.00 26 1014.9
20260501231744 70 169 11.3 13.0 0.00 0.00 0.00 26 1015.0
20260501230744 70 176 7.0 7.8 0.00 0.00 0.00 28 1015.0
20260501225750 70 281 3.5 7.0 0.00 0.00 0.00 27 1015.1
20260501224751 69 139 7.0 10.4 0.00 0.00 0.00 25 1015.3
20260501223816 69 200 7.8 9.6 0.00 0.00 0.00 27 1014.4
20260501222800 70 115 6.1 9.6 0.00 0.00 0.00 26 1014.6
20260501221820 69 141 4.3 8.7 0.00 0.00 0.00 26 1014.6
20260501220757 69 156 4.3 8.7 0.00 0.00 0.00 28 1014.6
20260501215802 69 182 5.2 8.7 0.00 0.00 0.00 28 1014.8
20260501214742 69 107 4.3 6.1 0.00 0.00 0.00 29 1015.1
20260501213748 68 161 5.2 11.3 0.00 0.00 0.00 27 1015.3
20260501212748 68 151 5.2 9.6 0.00 0.00 0.00 27 1015.3
20260501211749 68 174 1.7 6.1 0.00 0.00 0.00 27 1015.4
20260501210748 68 124 4.3 10.4 0.00 0.00 0.00 27 1015.4
20260501205748 68 136 8.7 13.0 0.00 0.00 0.00 29 1015.5
20260501204754 67 42 4.3 10.4 0.00 0.00 0.00 27 1015.7
20260501203814 66 198 0.0 10.4 0.00 0.00 0.00 26 1015.9
20260501202758 66 116 2.6 8.7 0.00 0.00 0.00 27 1015.9
20260501201820 66 115 6.1 10.4 0.00 0.00 0.00 27 1016.0
20260501200743 66 105 3.5 6.1 0.00 0.00 0.00 29 1016.3
20260501195744 65 63 3.5 9.6 0.00 0.00 0.00 28 1016.3